Regional Weather Roundup
Issued by NWS Mobile, AL

Home | Current Version | Previous Version | Text Only | Print | Product List | Glossary On
Versions: 1 2 3 4 5 6 7 8 9 10 11 12 13 14 15 16 17 18 19 20 21 22 23 24 25 26 27 28 29 30 31 32 33 34 35 36 37 38 39 40 41 42 43 44 45 46 47 48 49 50
000
ASUS44 KMOB 260112
RWRMOB
REGIONAL WEATHER ROUNDUP
NATIONAL WEATHER SERVICE MOBILE AL
700 PM CST SAT FEB 25 2017

NOTE: "FAIR" INDICATES FEW OR NO CLOUDS BELOW 12,000 FEET WITH NO
      SIGNIFICANT WEATHER AND/OR OBSTRUCTIONS TO VISIBILITY.

  * THESE STATIONS ARE PART OF THE UNIVERSITY OF SOUTH ALABAMA
    MESONET AND ARE NOT UNDER NWS OR FAA QUALITY CONTROL.

ALZ061>064-260200-
COASTAL ALABAMA

CITY           SKY/WX    TMP DP  RH WIND       PRES   REMARKS
MOBILE REG APT PTCLDY    59  28  30 NW6       30.08R
BROOKLEY FIELD CLEAR     59  34  39 NW8       30.08R
USA CAMPUS*      N/A     57  34  41 CALM      30.07R
DOG RIVER*       N/A     61  32  33 NW3       30.84R


CITY           SKY/WX    TMP DP  RH WIND       PRES   REMARKS
GULF SHORES    CLEAR     61  33  34 NW6       30.05R

$$

ALZ051>060-260200-
INTERIOR SOUTHWEST AND SOUTH CENTRAL ALABAMA

CITY           SKY/WX    TMP DP  RH WIND       PRES   REMARKS
GREENVILLE     PTCLDY    54  22  28 NW7       30.05R
EVERGREEN      PTCLDY    55  31  39 N5        30.06R
ATMORE*          N/A     57  32  38 NW7       30.07R
ANDALUSIA/OPP  PTCLDY    59  26  28 NW9G20    30.04R
ANDALUSIA*       N/A     57  27  30 NW10      30.04R
FLORALA APT    PTCLDY    57  29  34 N3        30.04R
FLORALA*         N/A     61  25  25 SW7       30.75R

$$

FLZ001>006-260200-
WESTERN FLORIDA PANHANDLE

CITY           SKY/WX    TMP DP  RH WIND       PRES   REMARKS
PENSACOLA      CLEAR     64  31  28 NW8       30.03R
NAS PENSACOLA  CLEAR     62  31  31 NW6       30.03R
MILTON         LGT RAIN  59  32  36 NW6       30.03R
WHTNG S FIELD  CLEAR     63  33  32 NW7       30.04R


CITY           SKY/WX    TMP DP  RH WIND       PRES   REMARKS
JAY*             N/A     59  30  33 N7        30.05R
DUKE FIELD     CLEAR     62  28  27 NW8       30.01R
CRESTVIEW      PTCLDY    60  30  32 N6        30.03R
VALPARAISO     CLEAR     64  26  24 N8        30.02R
DESTIN         CLEAR     69  32  25 NW9       30.01R

$$

MSZ076-079-260200-
INTERIOR SOUTHEAST MISSISSIPPI

CITY           SKY/WX    TMP DP  RH WIND       PRES   REMARKS
LEAKESVILLE*   NOT AVBL
AGRICOLA*        N/A     57  28  33 N5        30.07R

$$

MARINE OBSERVATIONS

STATION/POSITION TIME  TEMP    WIND        PRES    WAVE
                       AIR SEA DIR/SP/G            HT/PER
                 (UTC) (F)     (DEG/KT/KT) (MB)    (FT/S)
PASCAGOULA       0036   62     340/  8/ 10 1017.8R
PETIT BOIS ISLND 0036   65     340/ 17/ 19 1018.6R
GRAND BAY        2345   66     330/  7     1018.0R
KATRINA CUT      0030          350/ 15     1017.3R
CEDAR POINT      0030   64     340/  8     1017.3R
E DAUPHIN ISLAND 0000   67     320/ 15/ 16 1016.8R
MIDDLE BAY LIGHT 0030   66     330/ 17     1017.3R
USCG MOBILE BAY  0036   63 66  330/  6/ 11 1018.4R
STATE DOCKS      0036   63 64              1017.7R
MEAHER PARK      0030   63     320/  8     1017.6R
WEEKS BAY        2345   66                   N/A
FORT MORGAN      0036   67     330/ 15/ 18   N/A
12 S ORANGE BCH  2350   69 69  330/ 14/ 16 1016.2R   2/ 3
PENSACOLA BAY    0048          340/  6/ 10   N/A
67 S FORT MORGAN 0030   66        CALM     1016.9R

$$

SELECTED LOCATIONS ACROSS THE REGION

CITY           SKY/WX    TMP DP  RH WIND       PRES   REMARKS
NEW ORLEANS    PTCLDY    63  34  33 N6        30.08R
GULFPORT       CLEAR     61  29  29 N9        30.07R
PASCAGOULA AP  CLEAR     59  26  28 NW5       30.07R
PASCAGOULA*    NOT AVBL
HATTIESBURG    CLEAR     56  30  37 N6        30.11R
LAUREL         CLEAR     52  27  37 N7        30.12S
MERIDIAN       CLEAR     50  27  40 NW7       30.11R
JACKSON        CLEAR     45  28  51 N3        30.13S
MONTGOMERY     CLEAR     54  22  28 NW8       30.06R
TROY           CLEAR     56  26  31 W6        30.04R
ASHFORD*         N/A     57  27  30 NW10      30.04R
DOTHAN         CLEAR     60  24  25 NW14      30.03R
PANAMA CITY    CLEAR     60  39  45 NW8       29.98R

$$




USA.gov is the U.S. government's official web portal to all federal, state and local government web resources and services.